| time (UTC) | temp F | wind direction | speed knots | gust knots | rain 1hr in | rain 24hr in | rain mn in | humidity % | barometer mb |
| 20260508213515 | 74 | 338 | 10.4 | 14.8 | 0.00 | 0.00 | 0.00 | 26 | 1019.0 |
| 20260508213015 | 74 | 338 | 7.8 | 14.8 | 0.00 | 0.00 | 0.00 | 25 | 1019.0 |
| 20260508212515 | 74 | 338 | 8.7 | 15.6 | 0.00 | 0.00 | 0.00 | 26 | 1018.9 |
| 20260508212015 | 74 | 315 | 7.8 | 13.9 | 0.00 | 0.00 | 0.00 | 26 | 1019.0 |
| 20260508211515 | 74 | 338 | 8.7 | 16.5 | 0.00 | 0.00 | 0.00 | 26 | 1019.1 |
| 20260508211015 | 74 | 338 | 9.6 | 16.5 | 0.00 | 0.00 | 0.00 | 24 | 1019.0 |
| 20260508210515 | 73 | 338 | 8.7 | 12.2 | 0.00 | 0.00 | 0.00 | 26 | 1019.1 |
| 20260508210015 | 72 | 338 | 7.0 | 13.0 | 0.00 | 0.00 | 0.00 | 29 | 1019.2 |
| 20260508205535 | 72 | 338 | 7.8 | 12.2 | 0.00 | 0.00 | 0.00 | 28 | 1018.9 |
| 20260508205015 | 71 | 315 | 7.8 | 13.9 | 0.00 | 0.00 | 0.00 | 24 | 1018.9 |
| 20260508204515 | 70 | 315 | 7.0 | 9.6 | 0.00 | 0.00 | 0.00 | 27 | 1019.0 |
| 20260508204015 | 70 | 338 | 7.8 | 11.3 | 0.00 | 0.00 | 0.00 | 27 | 1019.1 |
| 20260508203515 | 71 | 315 | 7.8 | 11.3 | 0.00 | 0.00 | 0.00 | 26 | 1019.0 |
| 20260508203015 | 71 | 315 | 7.0 | 11.3 | 0.00 | 0.00 | 0.00 | 26 | 1019.0 |
| 20260508202515 | 71 | 315 | 6.1 | 11.3 | 0.00 | 0.00 | 0.00 | 25 | 1019.1 |
| 20260508202017 | 71 | 338 | 7.8 | 13.9 | 0.00 | 0.00 | 0.00 | 27 | 1019.1 |
| 20260508201517 | 70 | 338 | 9.6 | 12.2 | 0.00 | 0.00 | 0.00 | 27 | 1019.1 |
| 20260508201017 | 71 | 338 | 8.7 | 13.0 | 0.00 | 0.00 | 0.00 | 27 | 1019.1 |
| 20260508200517 | 71 | 315 | 9.6 | 15.6 | 0.00 | 0.00 | 0.00 | 28 | 1019.1 |
| 20260508200017 | 71 | 23 | 6.1 | 11.3 | 0.00 | 0.00 | 0.00 | 29 | 1019.1 |
| 20260508195517 | 71 | 315 | 5.2 | 9.6 | 0.00 | 0.00 | 0.00 | 31 | 1019.2 |
| 20260508195017 | 70 | 315 | 5.2 | 11.3 | 0.00 | 0.00 | 0.00 | 29 | 1019.1 |
| 20260508194517 | 70 | 338 | 5.2 | 10.4 | 0.00 | 0.00 | 0.00 | 31 | 1019.2 |
| 20260508194017 | 70 | 315 | 7.8 | 13.0 | 0.00 | 0.00 | 0.00 | 31 | 1019.3 |
| 20260508193517 | 70 | 338 | 6.1 | 9.6 | 0.00 | 0.00 | 0.00 | 30 | 1019.3 |
| 20260508193017 | 70 | 338 | 6.1 | 10.4 | 0.00 | 0.00 | 0.00 | 29 | 1019.2 |
| 20260508192517 | 70 | 338 | 7.0 | 11.3 | 0.00 | 0.00 | 0.00 | 31 | 1019.3 |
| 20260508192017 | 70 | 315 | 5.2 | 7.8 | 0.00 | 0.00 | 0.00 | 30 | 1019.3 |
| 20260508191517 | 70 | 338 | 7.0 | 10.4 | 0.00 | 0.00 | 0.00 | 30 | 1019.4 |
| 20260508191017 | 70 | 338 | 7.8 | 13.0 | 0.00 | 0.00 | 0.00 | 32 | 1019.4 |
| 20260508190517 | 70 | 315 | 7.0 | 13.0 | 0.00 | 0.00 | 0.00 | 32 | 1019.8 |
| 20260508190017 | 70 | 338 | 7.0 | 12.2 | 0.00 | 0.00 | 0.00 | 30 | 1019.7 |
| 20260508185517 | 70 | 315 | 6.1 | 10.4 | 0.00 | 0.00 | 0.00 | 32 | 1019.8 |
| 20260508185017 | 69 | 315 | 7.0 | 11.3 | 0.00 | 0.00 | 0.00 | 31 | 1019.8 |
| 20260508184517 | 69 | 293 | 5.2 | 7.8 | 0.00 | 0.00 | 0.00 | 34 | 1019.9 |
| 20260508184017 | 69 | 315 | 7.0 | 11.3 | 0.00 | 0.00 | 0.00 | 33 | 1019.9 |
| 20260508183517 | 69 | 315 | 7.8 | 13.0 | 0.00 | 0.00 | 0.00 | 31 | 1019.9 |
| 20260508183017 | 69 | 315 | 6.1 | 12.2 | 0.00 | 0.00 | 0.00 | 35 | 1020.0 |
| 20260508182517 | 69 | 315 | 7.8 | 11.3 | 0.00 | 0.00 | 0.00 | 35 | 1020.0 |
| 20260508182017 | 69 | 315 | 6.1 | 9.6 | 0.00 | 0.00 | 0.00 | 34 | 1020.0 |
| 20260508181517 | 69 | 315 | 4.3 | 8.7 | 0.00 | 0.00 | 0.00 | 35 | 1019.7 |
| 20260508181017 | 69 | 315 | 3.5 | 7.0 | 0.00 | 0.00 | 0.00 | 34 | 1020.1 |
| 20260508180557 | 68 | 315 | 3.5 | 7.8 | 0.00 | 0.00 | 0.00 | 35 | 1019.7 |
| 20260508180037 | 68 | 338 | 2.6 | 5.2 | 0.00 | 0.00 | 0.00 | 35 | 1019.7 |
| 20260508175517 | 68 | 315 | 3.5 | 6.1 | 0.00 | 0.00 | 0.00 | 36 | 1019.9 |
| 20260508175017 | 68 | 315 | 6.1 | 12.2 | 0.00 | 0.00 | 0.00 | 35 | 1020.0 |
| 20260508174517 | 67 | 315 | 6.1 | 10.4 | 0.00 | 0.00 | 0.00 | 33 | 1019.9 |
| 20260508174017 | 68 | 293 | 5.2 | 9.6 | 0.00 | 0.00 | 0.00 | 32 | 1019.9 |
| 20260508173517 | 68 | 293 | 4.3 | 7.8 | 0.00 | 0.00 | 0.00 | 34 | 1019.9 |
| 20260508173017 | 67 | 293 | 6.1 | 7.8 | 0.00 | 0.00 | 0.00 | 35 | 1019.9 |
| 20260508172537 | 67 | 270 | 4.3 | 7.8 | 0.00 | 0.00 | 0.00 | 35 | 1019.9 |
| 20260508172017 | 67 | 293 | 4.3 | 8.7 | 0.00 | 0.00 | 0.00 | 37 | 1020.0 |
| 20260508171517 | 67 | 338 | 4.3 | 7.0 | 0.00 | 0.00 | 0.00 | 37 | 1019.9 |
| 20260508171017 | 67 | 315 | 3.5 | 7.0 | 0.00 | 0.00 | 0.00 | 36 | 1020.0 |
| 20260508170517 | 66 | 270 | 3.5 | 7.0 | 0.00 | 0.00 | 0.00 | 35 | 1019.9 |
| 20260508170025 | 66 | 315 | 3.5 | 6.1 | 0.00 | 0.00 | 0.00 | 38 | 1019.9 |
| 20260508165517 | 66 | 338 | 2.6 | 5.2 | 0.00 | 0.00 | 0.00 | 37 | 1019.9 |
| 20260508165037 | 66 | 315 | 2.6 | 5.2 | 0.00 | 0.00 | 0.00 | 39 | 1019.9 |
| 20260508164517 | 65 | 315 | 1.7 | 3.5 | 0.00 | 0.00 | 0.00 | 35 | 1019.5 |
| 20260508164016 | 65 | 315 | 1.7 | 2.6 | 0.00 | 0.00 | 0.00 | 39 | 1019.5 |
| 20260508163516 | 65 | 270 | 2.6 | 5.2 | 0.00 | 0.00 | 0.00 | 37 | 1019.5 |
| 20260508163016 | 65 | 270 | 1.7 | 3.5 | 0.00 | 0.00 | 0.00 | 38 | 1019.4 |
| 20260508162517 | 64 | 338 | 1.7 | 2.6 | 0.00 | 0.00 | 0.00 | 41 | 1019.5 |
| 20260508162017 | 64 | 315 | 0.9 | 3.5 | 0.00 | 0.00 | 0.00 | 42 | 1019.6 |
| 20260508161517 | 64 | 338 | 3.5 | 7.0 | 0.00 | 0.00 | 0.00 | 42 | 1019.6 |
| 20260508161017 | 64 | 338 | 2.6 | 6.1 | 0.00 | 0.00 | 0.00 | 43 | 1019.6 |
| 20260508160516 | 64 | 338 | 4.3 | 6.1 | 0.00 | 0.00 | 0.00 | 42 | 1019.6 |
| 20260508160017 | 64 | 315 | 5.2 | 7.0 | 0.00 | 0.00 | 0.00 | 45 | 1019.8 |
| 20260508155536 | 64 | 315 | 5.2 | 7.8 | 0.00 | 0.00 | 0.00 | 46 | 1019.7 |
| 20260508155016 | 64 | 338 | 5.2 | 7.8 | 0.00 | 0.00 | 0.00 | 48 | 1019.7 |
| 20260508154517 | 63 | 338 | 4.3 | 6.1 | 0.00 | 0.00 | 0.00 | 44 | 1019.6 |
| 20260508154036 | 63 | 338 | 3.5 | 6.1 | 0.00 | 0.00 | 0.00 | 42 | 1019.6 |
| 20260508153517 | 64 | 338 | 5.2 | 7.0 | 0.00 | 0.00 | 0.00 | 42 | 1019.5 |
| 20260508153056 | 64 | 338 | 4.3 | 7.0 | 0.00 | 0.00 | 0.00 | 38 | 1019.8 |
| 20260508152517 | 64 | 23 | 0.9 | 3.5 | 0.00 | 0.00 | 0.00 | 36 | 1019.4 |
| 20260508152016 | 64 | 23 | 2.6 | 4.3 | 0.00 | 0.00 | 0.00 | 37 | 1019.7 |
| 20260508151516 | 64 | 315 | 1.7 | 3.5 | 0.00 | 0.00 | 0.00 | 34 | 1019.6 |
| 20260508151017 | 64 | 0.0 | 1.7 | 0.00 | 0.00 | 0.00 | 35 | 1019.6 | |
| 20260508150517 | 63 | 0.0 | 0.0 | 0.00 | 0.00 | 0.00 | 35 | 1019.6 | |
| 20260508150039 | 63 | 0.0 | 0.0 | 0.00 | 0.00 | 0.00 | 36 | 1019.4 | |
| 20260508145516 | 62 | 0.0 | 2.6 | 0.00 | 0.00 | 0.00 | 35 | 1019.3 | |
| 20260508145037 | 62 | 45 | 1.7 | 2.6 | 0.00 | 0.00 | 0.00 | 34 | 1019.3 |
| 20260508144517 | 62 | 0.0 | 1.7 | 0.00 | 0.00 | 0.00 | 35 | 1019.3 | |
| 20260508144016 | 62 | 0.0 | 0.0 | 0.00 | 0.00 | 0.00 | 37 | 1019.0 | |
| 20260508143516 | 61 | 0.0 | 0.0 | 0.00 | 0.00 | 0.00 | 38 | 1019.9 | |
| 20260508143017 | 60 | 0.0 | 0.0 | 0.00 | 0.00 | 0.00 | 37 | 1019.6 | |
| 20260508142536 | 59 | 0.0 | 0.0 | 0.00 | 0.00 | 0.00 | 37 | 1019.5 | |
| 20260508142017 | 59 | 0.0 | 0.0 | 0.00 | 0.00 | 0.00 | 39 | 1019.5 | |
| 20260508141517 | 58 | 0.0 | 0.0 | 0.00 | 0.00 | 0.00 | 41 | 1019.1 | |
| 20260508141017 | 57 | 0.0 | 1.7 | 0.00 | 0.00 | 0.00 | 41 | 1019.1 | |
| 20260508140517 | 56 | 0.0 | 1.7 | 0.00 | 0.00 | 0.00 | 41 | 1019.0 | |
| 20260508140018 | 56 | 45 | 1.7 | 3.5 | 0.00 | 0.00 | 0.00 | 42 | 1019.1 |
| 20260508135516 | 56 | 68 | 3.5 | 4.3 | 0.00 | 0.00 | 0.00 | 41 | 1018.7 |
| 20260508135036 | 55 | 68 | 2.6 | 4.3 | 0.00 | 0.00 | 0.00 | 42 | 1018.6 |
| 20260508134516 | 55 | 68 | 1.7 | 4.3 | 0.00 | 0.00 | 0.00 | 40 | 1018.6 |
| 20260508134017 | 55 | 0.0 | 0.0 | 0.00 | 0.00 | 0.00 | 40 | 1018.4 | |
| 20260508133516 | 55 | 68 | 2.6 | 6.1 | 0.00 | 0.00 | 0.00 | 41 | 1018.8 |
| 20260508133016 | 55 | 90 | 2.6 | 5.2 | 0.00 | 0.00 | 0.00 | 42 | 1018.7 |
| 20260508132516 | 55 | 90 | 2.6 | 5.2 | 0.00 | 0.00 | 0.00 | 41 | 1018.8 |
| 20260508132016 | 55 | 90 | 3.5 | 5.2 | 0.00 | 0.00 | 0.00 | 41 | 1018.7 |
| 20260508131536 | 55 | 68 | 1.7 | 3.5 | 0.00 | 0.00 | 0.00 | 40 | 1018.5 |
| 20260508131016 | 55 | 68 | 1.7 | 3.5 | 0.00 | 0.00 | 0.00 | 40 | 1018.5 |
| 20260508130516 | 55 | 0.0 | 1.7 | 0.00 | 0.00 | 0.00 | 41 | 1018.5 | |
| 20260508130016 | 55 | 68 | 0.9 | 2.6 | 0.00 | 0.00 | 0.00 | 39 | 1018.4 |
| 20260508125517 | 55 | 68 | 1.7 | 3.5 | 0.00 | 0.00 | 0.00 | 39 | 1018.4 |
| 20260508125016 | 55 | 68 | 2.6 | 3.5 | 0.00 | 0.00 | 0.00 | 39 | 1018.2 |
| 20260508124516 | 56 | 68 | 1.7 | 3.5 | 0.00 | 0.00 | 0.00 | 38 | 1018.2 |
| 20260508124016 | 56 | 68 | 3.5 | 6.1 | 0.00 | 0.00 | 0.00 | 37 | 1018.4 |
| 20260508123556 | 56 | 68 | 1.7 | 3.5 | 0.00 | 0.00 | 0.00 | 38 | 1018.1 |
| 20260508123057 | 56 | 68 | 1.7 | 3.5 | 0.00 | 0.00 | 0.00 | 37 | 1018.0 |
| 20260508122516 | 56 | 68 | 2.6 | 6.1 | 0.00 | 0.00 | 0.00 | 37 | 1017.9 |
| 20260508122016 | 57 | 68 | 3.5 | 4.3 | 0.00 | 0.00 | 0.00 | 36 | 1018.3 |
| 20260508121516 | 57 | 90 | 4.3 | 7.0 | 0.00 | 0.00 | 0.00 | 36 | 1018.2 |
| 20260508121016 | 57 | 90 | 5.2 | 7.0 | 0.00 | 0.00 | 0.00 | 36 | 1018.2 |
| 20260508120516 | 58 | 90 | 6.1 | 7.0 | 0.00 | 0.00 | 0.00 | 35 | 1017.8 |
| 20260508120031 | 58 | 90 | 6.1 | 7.8 | 0.00 | 0.00 | 0.00 | 35 | 1017.8 |
| 20260508115516 | 58 | 90 | 5.2 | 7.0 | 0.00 | 0.00 | 0.00 | 35 | 1017.8 |
| 20260508115017 | 58 | 90 | 5.2 | 6.1 | 0.00 | 0.00 | 0.00 | 35 | 1017.7 |
| 20260508114516 | 58 | 68 | 5.2 | 7.8 | 0.00 | 0.00 | 0.00 | 35 | 1017.7 |
| 20260508114016 | 58 | 45 | 4.3 | 7.0 | 0.00 | 0.00 | 0.00 | 35 | 1017.6 |
| 20260508113516 | 58 | 45 | 6.1 | 10.4 | 0.00 | 0.00 | 0.00 | 35 | 1017.7 |
| 20260508113016 | 58 | 68 | 6.1 | 9.6 | 0.00 | 0.00 | 0.00 | 35 | 1017.6 |
| 20260508112536 | 58 | 68 | 6.1 | 7.8 | 0.00 | 0.00 | 0.00 | 36 | 1017.7 |
| 20260508112016 | 58 | 68 | 5.2 | 9.6 | 0.00 | 0.00 | 0.00 | 36 | 1017.7 |
| 20260508111516 | 58 | 68 | 4.3 | 7.0 | 0.00 | 0.00 | 0.00 | 36 | 1017.6 |
| 20260508111016 | 58 | 68 | 6.1 | 7.8 | 0.00 | 0.00 | 0.00 | 36 | 1017.7 |
| 20260508110516 | 58 | 90 | 6.1 | 7.8 | 0.00 | 0.00 | 0.00 | 36 | 1017.3 |
| 20260508110144 | 58 | 90 | 6.1 | 7.8 | 0.00 | 0.00 | 0.00 | 36 | 1017.3 |
| 20260508105516 | 57 | 90 | 6.1 | 7.8 | 0.00 | 0.00 | 0.00 | 37 | 1017.3 |
| 20260508105016 | 57 | 113 | 7.0 | 8.7 | 0.00 | 0.00 | 0.00 | 39 | 1017.3 |
| 20260508104516 | 57 | 113 | 7.0 | 8.7 | 0.00 | 0.00 | 0.00 | 42 | 1017.3 |
| 20260508104016 | 56 | 113 | 7.0 | 7.8 | 0.00 | 0.00 | 0.00 | 42 | 1017.0 |
| 20260508103516 | 56 | 113 | 7.0 | 7.8 | 0.00 | 0.00 | 0.00 | 43 | 1017.3 |
| 20260508103036 | 56 | 113 | 3.5 | 7.0 | 0.00 | 0.00 | 0.00 | 43 | 1017.3 |
| 20260508102516 | 56 | 113 | 1.7 | 3.5 | 0.00 | 0.00 | 0.00 | 44 | 1017.3 |
| 20260508102016 | 56 | 113 | 2.6 | 4.3 | 0.00 | 0.00 | 0.00 | 43 | 1017.3 |
| 20260508101516 | 56 | 113 | 3.5 | 6.1 | 0.00 | 0.00 | 0.00 | 43 | 1017.2 |
| 20260508101016 | 56 | 113 | 2.6 | 4.3 | 0.00 | 0.00 | 0.00 | 43 | 1017.2 |
| 20260508100516 | 56 | 113 | 0.9 | 3.5 | 0.00 | 0.00 | 0.00 | 42 | 1017.2 |
| 20260508100016 | 56 | 0.0 | 0.0 | 0.00 | 0.00 | 0.00 | 43 | 1017.3 | |
| 20260508095516 | 56 | 0.0 | 0.0 | 0.00 | 0.00 | 0.00 | 43 | 1017.3 | |
| 20260508095016 | 56 | 113 | 0.9 | 2.6 | 0.00 | 0.00 | 0.00 | 43 | 1017.1 |
| 20260508094516 | 55 | 113 | 1.7 | 4.3 | 0.00 | 0.00 | 0.00 | 44 | 1016.9 |
| 20260508094016 | 56 | 68 | 0.9 | 3.5 | 0.00 | 0.00 | 0.00 | 45 | 1016.8 |
| 20260508093516 | 56 | 68 | 2.6 | 4.3 | 0.00 | 0.00 | 0.00 | 44 | 1017.2 |
| 20260508093016 | 56 | 68 | 4.3 | 6.1 | 0.00 | 0.00 | 0.00 | 44 | 1017.1 |
| 20260508092516 | 56 | 68 | 4.3 | 6.1 | 0.00 | 0.00 | 0.00 | 44 | 1017.1 |
| 20260508092036 | 57 | 68 | 3.5 | 6.1 | 0.00 | 0.00 | 0.00 | 44 | 1017.0 |
| 20260508091516 | 57 | 68 | 2.6 | 3.5 | 0.00 | 0.00 | 0.00 | 43 | 1017.0 |
| 20260508091016 | 57 | 68 | 1.7 | 3.5 | 0.00 | 0.00 | 0.00 | 43 | 1017.0 |
| 20260508090516 | 57 | 68 | 3.5 | 4.3 | 0.00 | 0.00 | 0.00 | 44 | 1016.7 |
| 20260508090022 | 57 | 68 | 4.3 | 7.0 | 0.00 | 0.00 | 0.00 | 44 | 1016.6 |
| 20260508085516 | 57 | 68 | 4.3 | 6.1 | 0.00 | 0.00 | 0.00 | 43 | 1016.7 |
| 20260508085036 | 57 | 68 | 4.3 | 6.1 | 0.00 | 0.00 | 0.00 | 43 | 1016.7 |
| 20260508084516 | 58 | 68 | 4.3 | 7.0 | 0.00 | 0.00 | 0.00 | 43 | 1016.8 |
| 20260508084016 | 58 | 68 | 5.2 | 7.0 | 0.00 | 0.00 | 0.00 | 43 | 1017.1 |
| 20260508083516 | 58 | 68 | 6.1 | 7.8 | 0.00 | 0.00 | 0.00 | 43 | 1017.1 |
| 20260508083016 | 58 | 68 | 6.1 | 7.8 | 0.00 | 0.00 | 0.00 | 43 | 1017.2 |
| 20260508082516 | 58 | 90 | 5.2 | 7.0 | 0.00 | 0.00 | 0.00 | 43 | 1017.2 |
| 20260508082016 | 58 | 90 | 5.2 | 7.0 | 0.00 | 0.00 | 0.00 | 43 | 1017.2 |
| 20260508081516 | 58 | 90 | 5.2 | 6.1 | 0.00 | 0.00 | 0.00 | 43 | 1017.2 |
| 20260508081016 | 58 | 68 | 2.6 | 5.2 | 0.00 | 0.00 | 0.00 | 42 | 1017.3 |
| 20260508080516 | 58 | 45 | 2.6 | 4.3 | 0.00 | 0.00 | 0.00 | 43 | 1017.0 |
| 20260508080017 | 57 | 45 | 1.7 | 3.5 | 0.00 | 0.00 | 0.00 | 43 | 1017.1 |
| 20260508075516 | 57 | 45 | 2.6 | 4.3 | 0.00 | 0.00 | 0.00 | 43 | 1017.1 |
| 20260508075016 | 58 | 45 | 3.5 | 5.2 | 0.00 | 0.00 | 0.00 | 43 | 1017.1 |
| 20260508074516 | 58 | 23 | 3.5 | 5.2 | 0.00 | 0.00 | 0.00 | 42 | 1017.4 |
| 20260508074016 | 58 | 68 | 3.5 | 6.1 | 0.00 | 0.00 | 0.00 | 41 | 1017.4 |
| 20260508073516 | 58 | 45 | 3.5 | 4.3 | 0.00 | 0.00 | 0.00 | 41 | 1017.1 |
| 20260508073016 | 59 | 45 | 2.6 | 4.3 | 0.00 | 0.00 | 0.00 | 40 | 1017.0 |
| 20260508072516 | 59 | 23 | 2.6 | 3.5 | 0.00 | 0.00 | 0.00 | 40 | 1017.3 |
| 20260508072035 | 59 | 45 | 3.5 | 6.1 | 0.00 | 0.00 | 0.00 | 40 | 1017.3 |
| 20260508071516 | 59 | 68 | 3.5 | 4.3 | 0.00 | 0.00 | 0.00 | 39 | 1017.3 |
| 20260508071016 | 60 | 68 | 4.3 | 7.0 | 0.00 | 0.00 | 0.00 | 39 | 1017.3 |
| 20260508070516 | 60 | 68 | 5.2 | 7.0 | 0.00 | 0.00 | 0.00 | 39 | 1017.3 |
| 20260508070016 | 60 | 68 | 5.2 | 7.0 | 0.00 | 0.00 | 0.00 | 39 | 1017.2 |
| 20260508065516 | 60 | 68 | 6.1 | 7.8 | 0.00 | 0.00 | 0.00 | 38 | 1017.2 |
| 20260508065015 | 61 | 68 | 6.1 | 7.0 | 0.00 | 0.00 | 0.00 | 38 | 1017.6 |
| 20260508064536 | 61 | 68 | 6.1 | 7.0 | 0.00 | 0.00 | 0.00 | 37 | 1017.5 |
| 20260508064015 | 61 | 90 | 4.3 | 6.1 | 0.00 | 0.00 | 0.00 | 37 | 1017.5 |
| 20260508063536 | 61 | 90 | 4.3 | 6.1 | 0.00 | 0.00 | 0.00 | 36 | 1017.5 |
| 20260508063015 | 61 | 90 | 4.3 | 7.0 | 0.00 | 0.00 | 0.00 | 36 | 1017.5 |
| 20260508062515 | 61 | 68 | 5.2 | 7.8 | 0.00 | 0.00 | 0.00 | 36 | 1017.5 |
| 20260508062015 | 61 | 68 | 6.1 | 7.0 | 0.00 | 0.00 | 0.00 | 36 | 1017.5 |
| 20260508061516 | 61 | 68 | 5.2 | 7.8 | 0.00 | 0.00 | 0.00 | 36 | 1017.5 |
| 20260508061015 | 61 | 68 | 6.1 | 8.7 | 0.00 | 0.00 | 0.00 | 36 | 1017.4 |
| 20260508060516 | 61 | 68 | 7.0 | 9.6 | 0.00 | 0.00 | 0.00 | 36 | 1017.1 |
| 20260508060017 | 61 | 68 | 7.0 | 8.7 | 0.00 | 0.00 | 0.00 | 36 | 1017.1 |
| 20260508055517 | 61 | 68 | 6.1 | 8.7 | 0.00 | 0.00 | 0.00 | 36 | 1017.1 |
| 20260508055017 | 61 | 90 | 7.0 | 7.8 | 0.00 | 0.00 | 0.00 | 36 | 1017.1 |
| 20260508054517 | 61 | 90 | 6.1 | 7.8 | 0.00 | 0.00 | 0.00 | 36 | 1017.0 |
| 20260508054017 | 61 | 68 | 7.0 | 8.7 | 0.00 | 0.00 | 0.00 | 36 | 1017.0 |
| 20260508053517 | 61 | 68 | 7.0 | 8.7 | 0.00 | 0.00 | 0.00 | 36 | 1017.0 |
| 20260508053017 | 61 | 68 | 7.0 | 8.7 | 0.00 | 0.00 | 0.00 | 36 | 1017.0 |
| 20260508052516 | 61 | 68 | 7.0 | 7.8 | 0.00 | 0.00 | 0.00 | 36 | 1016.9 |
| 20260508052017 | 61 | 68 | 6.1 | 7.8 | 0.00 | 0.00 | 0.00 | 36 | 1016.9 |
| 20260508051517 | 61 | 68 | 7.0 | 7.8 | 0.00 | 0.00 | 0.00 | 36 | 1016.9 |
| 20260508051017 | 62 | 68 | 7.0 | 8.7 | 0.00 | 0.00 | 0.00 | 35 | 1016.9 |
| 20260508050517 | 62 | 68 | 7.0 | 7.8 | 0.00 | 0.00 | 0.00 | 35 | 1016.6 |
| 20260508050017 | 62 | 68 | 6.1 | 7.8 | 0.00 | 0.00 | 0.00 | 35 | 1016.6 |
| 20260508045517 | 62 | 68 | 6.1 | 7.8 | 0.00 | 0.00 | 0.00 | 35 | 1016.6 |
| 20260508045036 | 62 | 90 | 7.0 | 7.8 | 0.00 | 0.00 | 0.00 | 35 | 1016.6 |
| 20260508044537 | 62 | 90 | 6.1 | 7.8 | 0.00 | 0.00 | 0.00 | 35 | 1016.6 |
| 20260508044057 | 62 | 90 | 6.1 | 7.8 | 0.00 | 0.00 | 0.00 | 35 | 1016.7 |
| 20260508043516 | 62 | 90 | 6.1 | 7.8 | 0.00 | 0.00 | 0.00 | 35 | 1016.3 |
| 20260508043017 | 62 | 90 | 7.0 | 7.8 | 0.00 | 0.00 | 0.00 | 35 | 1016.4 |
| 20260508042517 | 62 | 90 | 7.0 | 8.7 | 0.00 | 0.00 | 0.00 | 35 | 1016.4 |
| 20260508042036 | 62 | 90 | 7.8 | 8.7 | 0.00 | 0.00 | 0.00 | 35 | 1016.4 |
| 20260508041516 | 62 | 90 | 7.0 | 7.8 | 0.00 | 0.00 | 0.00 | 35 | 1016.4 |
| 20260508041016 | 62 | 90 | 6.1 | 7.8 | 0.00 | 0.00 | 0.00 | 36 | 1016.4 |
| 20260508040516 | 62 | 90 | 7.0 | 7.8 | 0.00 | 0.00 | 0.00 | 35 | 1016.4 |
| 20260508040018 | 62 | 90 | 5.2 | 7.8 | 0.00 | 0.00 | 0.00 | 35 | 1016.3 |
| 20260508035517 | 62 | 90 | 6.1 | 7.0 | 0.00 | 0.00 | 0.00 | 35 | 1016.3 |
| 20260508035016 | 62 | 90 | 6.1 | 7.8 | 0.00 | 0.00 | 0.00 | 35 | 1016.4 |
| 20260508034516 | 62 | 90 | 6.1 | 7.8 | 0.00 | 0.00 | 0.00 | 35 | 1016.3 |
| 20260508034016 | 63 | 90 | 6.1 | 7.8 | 0.00 | 0.00 | 0.00 | 35 | 1016.6 |
| 20260508033516 | 63 | 90 | 7.0 | 7.8 | 0.00 | 0.00 | 0.00 | 35 | 1015.9 |
| 20260508033036 | 63 | 90 | 5.2 | 7.0 | 0.00 | 0.00 | 0.00 | 34 | 1015.8 |
| 20260508032537 | 63 | 90 | 3.5 | 5.2 | 0.00 | 0.00 | 0.00 | 33 | 1015.7 |
| 20260508032036 | 64 | 90 | 4.3 | 5.2 | 0.00 | 0.00 | 0.00 | 33 | 1015.7 |
| 20260508031517 | 64 | 113 | 5.2 | 7.0 | 0.00 | 0.00 | 0.00 | 33 | 1015.9 |
| 20260508031017 | 64 | 113 | 6.1 | 7.0 | 0.00 | 0.00 | 0.00 | 33 | 1016.0 |
| 20260508030536 | 64 | 113 | 5.2 | 7.0 | 0.00 | 0.00 | 0.00 | 33 | 1016.0 |
| 20260508030018 | 64 | 113 | 5.2 | 7.0 | 0.00 | 0.00 | 0.00 | 33 | 1016.0 |
| 20260508025517 | 64 | 113 | 6.1 | 7.8 | 0.00 | 0.00 | 0.00 | 33 | 1016.0 |
| 20260508025017 | 64 | 113 | 4.3 | 6.1 | 0.00 | 0.00 | 0.00 | 33 | 1016.0 |
| 20260508024536 | 65 | 45 | 1.7 | 2.6 | 0.00 | 0.00 | 0.00 | 32 | 1016.0 |
| 20260508024016 | 66 | 45 | 2.6 | 4.3 | 0.00 | 0.00 | 0.00 | 32 | 1016.2 |
| 20260508023517 | 67 | 90 | 2.6 | 4.3 | 0.00 | 0.00 | 0.00 | 32 | 1016.2 |
| 20260508023017 | 68 | 338 | 2.6 | 3.5 | 0.00 | 0.00 | 0.00 | 31 | 1016.5 |
| 20260508022516 | 69 | 338 | 1.7 | 3.5 | 0.00 | 0.00 | 0.00 | 30 | 1016.6 |
| 20260508022016 | 70 | 338 | 1.7 | 2.6 | 0.00 | 0.00 | 0.00 | 29 | 1017.0 |
| 20260508021517 | 71 | 338 | 1.7 | 2.6 | 0.00 | 0.00 | 0.00 | 29 | 1017.0 |
| 20260508021016 | 71 | 338 | 2.6 | 3.5 | 0.00 | 0.00 | 0.00 | 28 | 1017.0 |
| 20260508020537 | 71 | 315 | 1.7 | 2.6 | 0.00 | 0.00 | 0.00 | 29 | 1016.3 |
| 20260508020018 | 72 | 315 | 1.7 | 2.6 | 0.00 | 0.00 | 0.00 | 28 | 1016.3 |
| 20260508015516 | 71 | 315 | 2.6 | 4.3 | 0.00 | 0.00 | 0.00 | 28 | 1016.3 |
| 20260508015016 | 71 | 315 | 2.6 | 4.3 | 0.00 | 0.00 | 0.00 | 28 | 1016.3 |
| 20260508014517 | 72 | 293 | 3.5 | 5.2 | 0.00 | 0.00 | 0.00 | 27 | 1016.3 |
| 20260508014016 | 72 | 315 | 3.5 | 6.1 | 0.00 | 0.00 | 0.00 | 27 | 1016.6 |
| 20260508013516 | 72 | 293 | 3.5 | 6.1 | 0.00 | 0.00 | 0.00 | 26 | 1017.0 |
| 20260508013016 | 73 | 315 | 4.3 | 7.0 | 0.00 | 0.00 | 0.00 | 27 | 1017.0 |
| 20260508012536 | 73 | 315 | 5.2 | 7.8 | 0.00 | 0.00 | 0.00 | 26 | 1017.2 |
| 20260508012017 | 73 | 0 | 3.5 | 6.1 | 0.00 | 0.00 | 0.00 | 28 | 1017.2 |
| 20260508011516 | 73 | 0 | 1.7 | 4.3 | 0.00 | 0.00 | 0.00 | 27 | 1017.1 |
| 20260508011016 | 73 | 0 | 1.7 | 5.2 | 0.00 | 0.00 | 0.00 | 25 | 1017.3 |
| 20260508010536 | 73 | 0 | 3.5 | 7.0 | 0.00 | 0.00 | 0.00 | 26 | 1017.0 |
| 20260508010021 | 73 | 338 | 3.5 | 5.2 | 0.00 | 0.00 | 0.00 | 26 | 1017.0 |
| 20260508005516 | 73 | 270 | 2.6 | 4.3 | 0.00 | 0.00 | 0.00 | 25 | 1017.1 |
| 20260508005016 | 73 | 293 | 3.5 | 7.0 | 0.00 | 0.00 | 0.00 | 25 | 1016.9 |
| 20260508004516 | 73 | 293 | 3.5 | 6.1 | 0.00 | 0.00 | 0.00 | 25 | 1016.9 |
| 20260508004016 | 74 | 293 | 1.7 | 5.2 | 0.00 | 0.00 | 0.00 | 25 | 1017.2 |
| 20260508003536 | 73 | 293 | 0.9 | 5.2 | 0.00 | 0.00 | 0.00 | 26 | 1016.9 |
| 20260508003016 | 74 | 45 | 3.5 | 7.0 | 0.00 | 0.00 | 0.00 | 26 | 1017.1 |
| 20260508002516 | 73 | 338 | 3.5 | 7.0 | 0.00 | 0.00 | 0.00 | 26 | 1017.2 |
| 20260508002016 | 73 | 45 | 4.3 | 9.6 | 0.00 | 0.00 | 0.00 | 26 | 1017.3 |
| 20260508001516 | 73 | 23 | 3.5 | 5.2 | 0.00 | 0.00 | 0.00 | 27 | 1017.4 |
| 20260508001016 | 73 | 338 | 3.5 | 7.0 | 0.00 | 0.00 | 0.00 | 26 | 1017.3 |
| 20260508000516 | 72 | 0 | 1.7 | 4.3 | 0.00 | 0.00 | 0.00 | 29 | 1017.4 |
| 20260508000017 | 72 | 338 | 1.7 | 5.2 | 0.00 | 0.00 | 0.00 | 27 | 1017.4 |
| 20260507235516 | 72 | 0 | 1.7 | 4.3 | 0.00 | 0.00 | 0.00 | 27 | 1017.4 |
| 20260507235016 | 72 | 338 | 3.5 | 7.0 | 0.00 | 0.00 | 0.00 | 28 | 1017.5 |
| 20260507234516 | 71 | 338 | 1.7 | 5.2 | 0.00 | 0.00 | 0.00 | 29 | 1017.3 |
| 20260507234016 | 71 | 338 | 2.6 | 5.2 | 0.00 | 0.00 | 0.00 | 29 | 1017.4 |
| 20260507233556 | 72 | 315 | 4.3 | 6.1 | 0.00 | 0.00 | 0.00 | 29 | 1017.7 |
| 20260507233016 | 72 | 315 | 3.5 | 6.1 | 0.00 | 0.00 | 0.00 | 27 | 1017.7 |
| 20260507232516 | 73 | 90 | 0.9 | 3.5 | 0.00 | 0.00 | 0.00 | 28 | 1017.9 |
| 20260507232016 | 73 | 45 | 3.5 | 7.8 | 0.00 | 0.00 | 0.00 | 29 | 1017.9 |
| 20260507231516 | 72 | 23 | 4.3 | 7.8 | 0.00 | 0.00 | 0.00 | 31 | 1018.0 |
| 20260507231016 | 71 | 0 | 5.2 | 7.8 | 0.00 | 0.00 | 0.00 | 32 | 1017.8 |
| 20260507230516 | 71 | 23 | 3.5 | 7.0 | 0.00 | 0.00 | 0.00 | 30 | 1017.9 |
| 20260507230036 | 71 | 23 | 4.3 | 7.8 | 0.00 | 0.00 | 0.00 | 29 | 1018.1 |
| 20260507225516 | 71 | 338 | 3.5 | 7.0 | 0.00 | 0.00 | 0.00 | 29 | 1018.1 |
| 20260507225016 | 71 | 315 | 4.3 | 7.8 | 0.00 | 0.00 | 0.00 | 30 | 1018.2 |
| 20260507224516 | 70 | 338 | 4.3 | 7.0 | 0.00 | 0.00 | 0.00 | 31 | 1018.4 |
| 20260507224016 | 69 | 0 | 5.2 | 7.8 | 0.00 | 0.00 | 0.00 | 31 | 1018.1 |
| 20260507223516 | 69 | 0 | 6.1 | 9.6 | 0.00 | 0.00 | 0.00 | 33 | 1018.5 |
| 20260507223016 | 69 | 315 | 7.0 | 9.6 | 0.00 | 0.00 | 0.00 | 31 | 1018.6 |
| 20260507222516 | 69 | 315 | 6.1 | 9.6 | 0.00 | 0.00 | 0.00 | 31 | 1018.7 |
| 20260507222016 | 69 | 338 | 7.0 | 10.4 | 0.00 | 0.00 | 0.00 | 30 | 1018.7 |
| 20260507221516 | 70 | 315 | 7.0 | 11.3 | 0.00 | 0.00 | 0.00 | 30 | 1018.8 |
| 20260507221016 | 70 | 338 | 7.0 | 12.2 | 0.00 | 0.00 | 0.00 | 31 | 1018.8 |
| 20260507220516 | 70 | 315 | 5.2 | 9.6 | 0.00 | 0.00 | 0.00 | 30 | 1018.9 |
| 20260507220019 | 70 | 315 | 6.1 | 10.4 | 0.00 | 0.00 | 0.00 | 31 | 1019.0 |
| 20260507215516 | 70 | 315 | 8.7 | 13.9 | 0.00 | 0.00 | 0.00 | 29 | 1018.9 |
| 20260507215016 | 70 | 315 | 7.8 | 12.2 | 0.00 | 0.00 | 0.00 | 30 | 1019.0 |
| 20260507214516 | 70 | 315 | 7.0 | 9.6 | 0.00 | 0.00 | 0.00 | 29 | 1019.0 |
| 20260507214016 | 70 | 315 | 9.6 | 13.0 | 0.00 | 0.00 | 0.00 | 30 | 1019.1 |